Welcome to the New NWS' Forecast!
Most changes are behind the scenes, but click here for differences you might notice.
Latest weather observations around

Missoula, Missoula International Airport (KMSO)

Using International System of Units (Switch to English Units)
Date/ Time (MDT) Wind (kph) Vis. (km) Weather Sky Cond. Temp (°C) Rel. Humidity Wind Chill (°C) Heat Index (°C) Pressure Precip. (cm)
Air Dwpt 6 hour Altimeter (hPa) Sea level (hPa) 1 hr 3 hr 6 hr
Max Min
Aug 15 01:53 Calm 9.66 Haze CLR 14 4     53%     1015.6 1013.6      
Aug 15 00:53 Calm 9.66 Haze CLR 16 4     44%     1015.2 1013.2      
Aug 14 23:53 Calm 9.66 Haze CLR 16 4     44%     1014.6 1012.9      
Aug 14 22:53 NNW 8 9.66 Haze CLR 19 4     38%     1014.2 1012.4      
Aug 14 21:53 NNW 9 9.66 Haze CLR 21 5     35%     1013.9 1012.2      
Aug 14 20:53 W 5 11.27 Clear CLR 24 5     29%   24 1013.6 1011.8      
Aug 14 19:53 N 13 8.05 Haze CLR 27 4     23%   27 1013.2 1011.4      
Aug 14 18:53 N 17 9.66 Haze CLR 29 4     20%   28 1013.6 1011.7      
Aug 14 17:53 N 17 9.66 Haze CLR 30 3     18%   28 1013.6 1011.7     0
Aug 14 16:53 NNE 13 9.66 Haze CLR 30 3     18%   28 1014.2 1012.1      
Aug 14 15:53 NW 13 11.27 Clear CLR 31 0     14%   29 1014.9 1012.8      
Aug 14 14:53 Calm 9.66 Haze CLR 28 2     18%   27 1015.6 1013.7 0 0  
Aug 14 13:53 5 9.66 Haze CLR 27 6     25%   27 1016.3 1014.4      
Aug 14 12:53 Calm 9.66 Haze CLR 24 5     29%   24 1016.9 1015.3      
Aug 14 11:53 5 11.27 Clear CLR 22 5     34%   21 1018 1016.3      
Aug 14 10:53 Calm 12.87 Clear CLR 18 4     40%     1018.6 1016.9      
Aug 14 09:53 SE 8 11.27 Clear CLR 16 5     48%     1018.6 1017.4      
Aug 14 08:53 Calm 11.27 Clear CLR 13 5     57%     1019 1017.6      
Aug 14 07:53 Calm 11.27 Clear CLR 11 4     63%     1018.6 1017.2      
Aug 14 06:53 Calm 9.66 Haze CLR 9 3     66%     1018.3 1016.9      
Aug 14 04:53 Calm 12.87 Clear CLR 11 3     61%     1017.6 1015.9      
Aug 14 03:53 Calm 12.87 Clear CLR 11 3     59%     1017.6 1015.7      
Aug 14 02:53 N 5 11.27 Clear CLR 12 3     55%     1017.3 1015.6      
Aug 14 01:53 Calm 12.87 Clear CLR 13 3     51%     1017.6 1015.7      
Aug 14 00:53 Calm 12.87 Clear CLR 14 3     47%     1017.3 1015.8      
Aug 13 23:53 Calm 12.87 Clear CLR 16 3     41%     1016.9 1015.4      
Aug 13 21:53 WNW 11 12.87 Clear CLR 20 3     32%     1016.3 1015      
Aug 13 19:53   12.87 Clear CLR 25 4     26%   24 1015.6 1014.1      
Aug 13 18:53   12.87 Clear CLR 27 4     24%   26 1015.6 1014.1      
Aug 13 17:53 N 17 14.48 Clear CLR 28 4     21%   27 1015.9 1014      
Aug 13 16:53 N 17 14.48 Clear CLR 29 4     21%   27 1015.9 1014.2      
Aug 13 15:53 11 16.09 Clear CLR 28 3     20%   27 1016.6 1014.8      
Aug 13 14:53 5 16.09 Clear CLR 27 4     23%   27 1017.3 1015.4      
Aug 13 12:53 5 16.09 Clear CLR 24 6     31%   23 1019 1016.9      
Aug 13 11:53 Calm 16.09 Clear CLR 21 5     36%     1020 1018.1      
Aug 13 10:53 Calm 16.09 Clear CLR 18 5     43%     1020.3 1019      
Aug 13 09:53 Calm 16.09 Clear CLR 15 5     51%     1020.7 1019.4      
Aug 13 08:53 W 5 16.09 Clear CLR 13 6     60%     1021 1019.8      
Aug 13 07:53 Calm 16.09 Clear CLR 11 6     69%     1021.3 1019.9      
Aug 13 06:53 Calm 16.09 Clear CLR 9 4     69%     1021 1019.4      
Aug 13 05:53 NNE 5 16.09 Clear CLR 10 4     66%     1020.7 1019      
Aug 13 04:53 Calm 16.09 Clear CLR 11 4     61%     1020.7 1018.8      
Notice The following observation data may not be complete
Aug 13 00:53 NNW 17 16.09 Clear CLR   4      %     1020 1017.8      
Aug 12 23:53 NNW 17 16.09 Clear CLR 19 3     34%     1019.3 1017.2      
Aug 12 21:53 NW 15 16.09 Clear CLR 21 3     31%     1018 1016      
Aug 12 20:53   16.09 Clear CLR 23 3     26%   22 1016.6 1014.6      
Aug 12 19:53   16.09 Clear CLR 25 3     24%   24 1015.9 1013.7      
Aug 12 18:53   16.09 Clear CLR 28 0     16%   27 1015.6 1013.6      
Aug 12 17:53   16.09 Clear CLR 28 2     19%   27 1015.9 1013.5      
Aug 12 16:53 NNW 24 16.09 Clear CLR 28 3     19%   27 1016.3 1013.6      
Aug 12 15:53 WNW 28 16.09 Clear CLR 28 4     21%   27 1016.6 1013.9      
Aug 12 14:53   16.09 Clear CLR 27 5     25%   26 1017.3 1014.6      
Aug 12 13:53   16.09 Clear CLR 27 5     25%   26 1018 1015.1      
Aug 12 12:53 NW 17 16.09 Clear CLR 26 6     28%   25 1018.3 1015.6      
Aug 12 10:53   16.09 Clear CLR 23 6     32%   23 1019 1016.2      
Aug 12 09:53   16.09 Clear CLR 22 5     34%   21 1019.3 1016.6      
Aug 12 07:53 W 8 16.09 Clear CLR 17 5     45%     1019 1015.9      
Aug 12 04:53 N 11 16.09 Clear CLR 19 6     42%     1016.9 1013.8      
Aug 12 03:53 NW 17 16.09 Clear CLR 21 6     36%     1016.6 1013.3 0    
Aug 12 02:53 NNW 18 16.09 Partly Cloudy FEW065 FEW095 SCT120 22 6     35%   21 1015.2 1012.2 0 0  
Aug 12 01:53 NW 18 16.09 Clear CLR 23 7     35%   22 1015.2 1012.1      
Aug 12 00:53 NW 24 14.48 Clear CLR 24 7     33%   24   1011.7      
Aug 11 23:53 NW 26 16.09 Clear CLR 26 8     32%   25   1011      
May 14 10:53 S 5 16.09 Clear CLR 14 6     55%     1020.3 1019.6      
May 14 06:53 SSE 5 16.09 Clear CLR 6 3     82% 5   1020.7 1020.5      
May 12 22:53 Calm 16.09 Clear CLR 11 3     59%     1014.9 1014.9      
May 12 18:53 N 15 16.09 Clear CLR 19 3     34%     1013.6 1013.5      
May 11 17:53   16.09 Mostly Clear FEW060 13 7     66%     1017.6 1017.8     0
Jun 11 20:53   16.09 Clear   18 2     34%     1009.8 1009.3      
Jun 11 14:53 W 8 16.09 Clear CLR 18 -2     25%     1012.2 1012.4      
Jun 10 12:13 8 9.66 Light Rain FEW035 BKN043 OVC055 11 5     66%     1007.5   0    
Jun 10 08:53 S 11 16.09 Clear CLR 11 5     68%     1007.5 1007.1      
Jun 09 13:53 11 16.09 Light Rain FEW026 SCT037 BKN047 14 9     72%     1009.2 1008.7 0    
Jun 08 21:53   16.09 Mostly Clear FEW120 18 11     63%     1007.5 1005.9      
Jun 07 23:53 E 17 16.09 Clear CLR 21 12     57%     1010.5 1008.2      
Jun 07 09:53 Calm 16.09 Clear CLR 19 11     61%     1015.6 1013.8      
Jun 06 01:53 N 8 16.09 Clear CLR 8 5     80% 7   1021.7 1021.1